CAPE
0 0 0 0 0 0 0 0 0 0 0 0 0 0 0 0 28 381 546 898 1018 1074 904 805 710 694 770 1065 1045 1590 1184 2074 2013 1828 1519 1282 747 446 227 623 379 302 560 456
0 0 0 0 0 0 0 0 0 0 0 0 0 0 0 0 3 30 315 916 917 947 982 998 938 963 1096 1165 1574 2263 2028 1631 1642 1642 1734 1605 1291 1100 863 653 467 221 223 650
0 0 0 0 0 0 0 0 0 0 0 0 0 11 8 50 17 18 0 659 765 737 919 1050 1135 1082 1445 1747 1837 2744 1586 771 585 539 604 1667 1459 1396 1412 1201 817 557 286 808
0 0 0 0 0 0 0 0 0 0 0 0 0 84 152 22 50 16 40 0 551 576 759 777 893 604 164 2056 2421 3084 2547 1030 554 883 459 1628 1795 1287 1251 1406 1204 997 1074 814
0 0 0 0 0 0 0 0 0 0 0 0 0 162 61 3 0 0 54 128 35 667 876 601 549 105 57 1115 2828 3207 2769 2505 1712 1448 1361 2284 2025 1306 1056 1119 1358 1528 1167 1033
0 0 0 0 0 0 0 0 0 0 0 0 25 6 0 10 19 0 0 60 116 75 735 329 1 0 45 133 2471 3482 3510 2970 2916 2640 2114 2878 2364 1839 1704 1040 1418 1478 1409 978
0 0 0 0 0 0 0 0 0 0 9 13 3 34 0 4 0 0 5 0 263 26 50 25 69 163 1 49 1796 3308 3630 3833 3577 3381 3252 2930 2900 2265 1948 1536 1583 1616 1353 1260
0 0 0 0 0 0 0 0 0 5 15 69 0 3 5 2 0 0 8 801 1950 1596 1446 502 551 242 0 361 1545 2590 3100 3424 3644 3739 3575 3496 3276 3362 2392 1935 1782 1439 1349 1295
0 0 0 0 0 0 0 0 0 0 0 27 8 10 25 36 15 4 133 2076 1510 1016 1522 1449 1976 1699 1198 1042 1778 2343 3020 2968 3527 3445 3450 3538 3606 3438 3138 2388 2045 1687 1 202
0 0 0 0 0 0 0 0 0 0 144 270 78 25 64 0 50 1 1957 1913 1732 1049 36 355 1724 1157 1221 1234 1194 2578 3067 1078 3353 3497 3331 3283 3402 3379 3361 2835 2350 1718 320 28
0 0 1 0 0 0 0 0 0 1 67 104 10 37 56 0 0 0 1641 964 99 0 0 421 1170 1098 722 1278 1543 1497 2477 2776 2875 3234 2899 3109 3500 3574 3310 3094 2903 2589 1553 1281
0 0 0 1 40 71 46 14 53 35 95 30 60 7 116 0 7 203 1431 1461 744 0 17 817 873 23 34 490 1302 1003 1555 1266 1418 1732 2254 3361 3107 2719 2381 2381 2498 2210 2195 707
0 39 0 1 73 0 35 3 0 30 0 2 224 159 30 13 0 0 12 1455 1454 1033 1045 1010 697 0 349 257 571 856 819 814 1780 2267 2547 2449 2677 2517 2269 2361 2264 2124 1330 837
0 0 0 0 121 5 6 52 24 0 66 6 81 64 0 0 0 0 0 0 240 1389 1183 950 832 137 0 0 983 600 324 259 757 1686 2159 2358 2116 2024 2250 2273 2175 2088 1804 1035
0 2 10 37 133 106 50 1 4 19 0 1 14 31 3 0 0 6 0 0 185 769 958 912 840 232 0 496 620 292 287 310 340 472 1214 1639 1658 1614 2057 2330 2103 2122 1916 2542
16 13 102 112 103 7 33 12 5 41 0 0 68 10 0 0 1 97 58 17 0 343 375 342 440 336 367 288 104 223 190 223 487 365 473 655 916 1307 1545 1566 1652 2391 1809 840
2 0 3 9 45 6 3 1 10 0 0 0 0 28 10 10 51 27 32 62 54 32 118 324 274 179 68 49 318 786 604 244 431 555 444 561 701 843 822 910 1079 1576 1981 1347
2 24 7 0 6 0 9 0 0 0 0 0 0 0 0 0 0 0 0 0 0 0 0 6 18 60 77 1 5 227 86 233 518 589 617 590 893 818 724 1037 846 789 1181 1573
0 0 0 0 0 0 0 0 0 1 0 0 0 0 0 0 0 0 0 0 0 0 0 0 0 0 0 0 6 20 84 302 487 652 959 1262 1111 885 1062 1196 1097 928 885 883
0 0 0 0 0 0 0 0 0 0 0 0 0 0 0 0 0 0 0 0 0 0 0 0 0 0 0 0 0 18 88 272 545 632 517 939 1194 1225 1131 955 864 947 1093 1013
0 8 4 0 0 0 0 0 0 0 0 0 0 0 0 0 0 0 0 0 0 0 0 0 0 0 6 18 60 170 389 599 703 836 840 832 827 877 1029 1103 1083 950 768 595
0 0 0 25 83 7 0 0 0 0 0 0 0 0 0 0 0 0 0 0 0 0 3 6 3 7 15 29 50 118 381 793 447 468 891 1157 1156 1054 723 591 588 578 583 641
5 77 5 0 0 0 0 0 0 0 0 0 0 0 0 0 0 0 0 0 0 4 8 9 16 26 35 53 100 155 178 394 402 500 513 432 433 642 651 523 330 343 401 460
9 0 0 0 0 0 0 0 0 0 0 0 0 0 0 0 0 0 0 0 0 0 0 2 7 12 17 33 68 128 70 47 182 141 151 176 168 65 334 341 250 186 132 176
0 0 0 0 0 0 0 0 0 0 0 0 0 0 0 0 0 0 0 0 0 0 0 0 0 0 11 9 13 16 0 43 63 63 100 40 2 7 27 7 3 19 58 99
0 0 0 0 0 0 0 0 0 0 0 0 0 0 0 0 0 0 0 0 2 5 8 0 0 1 0 0 1 10 0 0 2 10 10 175 204 123 48 53 1 0 0 5
CIN
0 0 0 0 0 0 0 0 0 0 0 0 0 0 0 -1 -63 -65 -98 -103 -109 -95 -128 -136 -120 -122 -112 -112 -110 -146 -158 -136 -103 -104 -102 -91 -144 -146 -163 -96 -110 -105 -39 -64
0 0 0 0 0 0 0 0 0 0 0 0 0 0 0 0 -21 -50 -82 -86 -88 -88 -116 -136 -126 -105 -116 -140 -112 -162 -168 -206 -173 -134 -99 -55 -87 -111 -124 -130 -147 -152 -113 -46
0 0 0 0 0 0 0 0 0 0 0 0 0 -85 -145 -212 -240 -107 -3 -74 -66 -89 -127 -139 -136 -133 -134 -153 -134 -142 -247 -331 -328 -262 -198 -72 -82 -86 -57 -71 -104 -112 -121 -81
0 0 0 0 0 0 0 0 0 0 0 0 0 -37 -193 -406 -216 -322 -206 0 -68 -80 -256 -259 -226 -227 -618 -122 -134 -171 -185 -319 -361 -261 -307 -93 -69 -86 -92 -64 -77 -80 -64 -85
0 0 0 0 0 0 0 0 0 0 0 0 0 -68 -187 -372 0 0 -351 -114 -77 -271 -186 -488 -369 -233 -604 -230 -118 -150 -184 -166 -197 -201 -182 -66 -55 -109 -115 -90 -66 -68 -87 -89
0 0 0 0 0 0 0 0 0 0 0 0 -23 -74 -1 -335 -533 0 0 -252 -283 -463 -277 -417 -88 -36 -533 -629 -96 -128 -146 -166 -132 -128 -143 -47 -56 -73 -68 -141 -69 -74 -83 -110
0 0 0 0 0 0 0 0 0 0 -54 -42 -88 -63 0 -126 0 0 -284 0 -165 -433 -662 -619 -509 -679 -146 -273 -103 -122 -139 -122 -99 -94 -78 -63 -42 -50 -46 -74 -56 -54 -71 -83
0 0 0 0 0 0 0 0 0 -26 -29 -29 -13 -38 -16 -91 0 0 -400 -181 -238 -250 -246 -456 -464 -493 0 -349 -166 -143 -153 -111 -84 -60 -48 -45 -39 -26 -51 -51 -58 -74 -84 -99
0 0 0 0 0 0 0 0 0 0 0 -67 -142 -136 -64 -224 -185 -27 -30 -220 -320 -315 -150 -238 -151 -143 -127 -155 -185 -162 -157 -118 -68 -51 -40 -23 -33 -24 -25 -47 -60 -89 -203 -386
0 0 0 0 0 0 0 0 0 0 -7 -37 -202 -157 -212 -79 -375 -13 -170 -231 -239 -285 -565 -285 -167 -307 -274 -192 -256 -125 -103 -554 -73 -62 -59 -50 -40 -38 -24 -35 -50 -110 -270 -526
0 0 -3 0 0 0 0 0 0 -19 -35 -59 -197 -322 -465 0 0 0 -120 -249 -326 0 0 -250 -165 -245 -373 -165 -105 -117 -44 -43 -53 -46 -54 -41 -41 -41 -53 -32 -33 -44 -113 -131
0 0 0 -2 -63 -55 -106 -66 -35 -53 -19 -68 -150 -152 -264 0 -102 -88 -69 -87 -223 0 -50 -159 -364 -83 -671 -514 -141 -180 -95 -143 -121 -82 -40 -35 -45 -56 -60 -54 -39 -35 -29 -224
0 -119 -4 -14 -31 0 -73 -61 0 -94 -2 -3 -44 -73 -64 -98 0 0 -5 -77 -121 -184 -274 -259 -301 0 -459 -513 -299 -94 -158 -197 -108 -59 -57 -53 -51 -75 -62 -43 -37 -43 -130 -161
0 0 0 0 -38 -39 -83 -68 -215 0 -89 -110 -49 -62 -1 0 0 0 0 0 -79 -98 -198 -255 -275 -517 0 0 -102 -113 -180 -184 -152 -74 -81 -31 -48 -77 -47 -30 -41 -42 -85 -149
0 -126 -116 -82 -47 -136 -129 -50 -37 -111 0 -17 -91 -120 -172 0 0 -241 0 0 -132 -52 -78 -83 -108 -239 0 -100 -56 -102 -108 -126 -150 -178 -87 -42 -44 -60 -28 -17 -44 -48 -53 -21
-139 -123 -36 -64 -26 -74 -121 -167 -140 -91 0 0 -101 -163 0 0 -5 -324 -310 -283 0 -75 -60 -66 -48 -65 -42 -49 -64 -54 -66 -109 -130 -130 -129 -119 -115 -73 -44 -37 -29 -35 -66 -141
-136 0 -180 -165 -112 -58 -14 -8 -80 0 0 0 0 -163 -131 -253 -280 -199 -260 -192 -174 -179 -112 -38 -47 -56 -92 -91 -66 -58 -48 -64 -55 -91 -124 -117 -113 -98 -96 -91 -87 -50 -43 -102
-23 -120 -79 -12 -151 0 -38 0 0 0 0 0 0 0 0 0 0 0 0 0 0 0 0 -71 -97 -128 -83 -16 -29 -69 -56 -49 -44 -57 -75 -97 -79 -64 -85 -64 -82 -97 -70 -39
0 0 0 0 0 0 0 0 0 -108 0 0 0 0 0 0 0 0 0 0 0 0 0 0 0 0 0 0 -71 -74 -81 -87 -78 -51 -52 -49 -45 -41 -43 -28 -44 -64 -61 -61
0 0 0 0 0 0 0 0 0 0 0 0 0 0 0 0 0 0 0 0 0 0 0 0 0 0 0 0 0 -158 -117 -70 -45 -53 -60 -64 -49 -44 -40 -43 -36 -39 -31 -28
0 -51 -92 0 0 -25 0 0 0 0 0 0 0 0 0 0 0 0 0 0 0 0 0 0 0 -20 -25 -55 -127 -50 -57 -58 -69 -70 -56 -57 -51 -40 -45 -44 -45 -32 -30 -27
0 0 0 -50 -70 -53 0 0 0 0 0 0 0 0 0 0 0 0 0 0 0 0 -104 -101 -97 -108 -102 -95 -109 -115 -73 -72 -96 -93 -83 -44 -36 -39 -39 -76 -66 -53 -40 -30
-47 -89 -29 0 0 0 0 0 0 0 0 0 0 0 0 0 0 0 0 0 0 -95 -105 -119 -123 -108 -122 -114 -89 -65 -85 -91 -88 -57 -70 -68 -61 -51 -57 -65 -77 -81 -51 -28
-222 0 0 0 0 0 0 0 0 0 0 0 0 0 0 0 0 0 0 0 0 0 -1 -31 -40 -31 -53 -77 -60 -39 -63 -56 -39 -47 -51 -48 -33 -68 -53 -38 -64 -91 -90 -53
0 0 0 0 0 0 0 0 0 0 0 0 0 0 0 0 0 0 0 0 0 0 0 0 0 0 -2 -17 -79 -69 0 -21 -14 -17 -17 -57 -23 -43 -61 -63 -50 -55 -72 -37
0 0 0 0 0 0 0 0 0 0 0 0 0 0 0 0 0 0 0 0 -2 -2 -2 0 -1 -1 0 -2 -6 -25 0 0 -5 -53 -9 -3 -6 -23 -38 -36 -16 0 0 -17
Wind_Speed
11 4 8 12 4 5 7 3 3 1 6 4 3 5 10 5 11 12 11 15 16 16 13 15 12 10 10 13 11 12 13 8 9 6 6 4 5 4 3 4 7 7 6 9
7 11 14 3 7 6 8 7 5 5 3 5 7 9 9 7 3 8 12 16 17 16 13 16 14 10 10 14 13 13 13 11 7 6 5 3 4 4 5 7 8 7 8 8
9 12 7 2 2 7 6 1 4 0 3 4 6 6 7 7 10 15 7 15 16 20 18 19 6 12 11 14 14 13 14 11 7 6 3 2 3 2 3 5 5 7 9 7
8 12 3 4 3 7 4 4 4 6 4 5 6 4 6 7 8 10 6 9 15 7 24 18 6 5 12 15 15 14 15 13 9 8 6 6 5 4 4 5 5 7 10 9
14 8 7 2 4 7 8 6 5 4 6 4 5 7 7 7 6 6 10 8 10 24 15 25 13 11 13 8 15 14 14 12 10 9 7 6 5 5 4 4 6 6 8 9
11 6 2 4 2 7 7 3 8 6 2 4 6 8 5 5 7 6 15 14 14 25 20 19 16 12 11 8 11 15 15 13 11 11 10 8 8 7 5 4 5 7 6 7
8 9 4 4 3 9 4 3 5 6 5 5 2 7 10 6 12 11 15 13 18 18 17 14 8 21 9 9 10 14 15 13 12 13 11 11 8 8 7 8 6 6 5 5
6 8 10 6 7 8 7 4 6 2 3 2 11 4 13 9 10 5 8 7 17 12 7 18 14 13 3 15 9 12 10 8 9 9 10 8 8 5 5 6 6 7 5 6
3 10 11 9 6 9 11 5 10 5 3 7 4 3 5 14 16 17 4 13 11 14 3 11 10 16 8 7 8 10 11 12 10 8 7 7 8 7 6 8 6 5 5 3
8 3 1 4 3 6 3 6 7 5 4 4 5 0 4 3 18 15 14 11 8 5 5 6 9 12 10 8 7 3 6 6 12 9 8 7 7 7 7 7 7 6 6 4
3 3 8 4 5 8 2 5 4 2 3 7 5 7 9 14 19 12 10 10 8 7 6 4 7 11 15 10 8 6 4 5 4 6 5 8 7 7 7 6 7 6 8 10
3 1 2 7 7 8 8 6 5 5 5 3 7 6 14 17 20 9 12 8 8 6 4 4 13 11 12 13 14 8 7 6 4 4 5 5 7 6 6 6 6 4 4 5
5 5 5 11 7 11 4 5 6 14 3 3 5 6 14 18 9 9 11 8 10 12 10 9 8 7 8 4 6 6 6 7 8 7 7 4 3 5 5 4 3 1 4 5
7 2 2 4 4 3 6 14 18 6 4 7 2 7 7 10 10 8 8 7 7 10 10 7 5 5 7 8 7 3 4 6 6 8 7 5 4 3 1 2 2 4 5 6
3 1 4 8 8 5 5 5 14 12 9 4 6 9 6 7 9 8 9 10 8 8 10 9 9 8 10 9 4 3 3 3 3 6 6 6 3 4 3 1 2 1 2 2
3 4 6 8 8 8 3 6 11 9 21 5 17 12 8 7 8 9 8 7 6 7 6 6 7 8 8 8 7 7 6 4 2 2 4 6 7 7 5 4 3 2 1 2
3 3 4 4 8 8 6 5 6 5 16 7 8 5 8 9 9 7 6 3 2 2 3 5 6 5 2 2 2 3 5 5 4 4 4 5 5 6 6 6 6 5 4 4
2 5 3 2 6 6 2 15 12 21 17 16 12 8 8 6 8 12 10 11 8 8 7 7 4 3 4 3 1 6 6 6 7 8 7 7 6 6 6 6 6 5 3 4
9 6 2 2 2 7 7 10 9 7 12 14 13 14 14 12 7 8 10 8 6 8 6 4 4 3 4 4 4 3 4 4 3 5 6 6 6 6 5 6 7 6 4 5
9 7 5 3 1 1 3 10 9 7 6 10 12 11 10 9 6 6 6 6 8 8 6 7 7 5 5 6 5 5 6 6 7 8 8 7 7 7 7 7 7 5 5 5
3 3 2 3 5 5 6 12 8 4 1 7 9 7 8 4 3 5 9 11 9 7 9 9 9 7 8 8 6 6 6 7 7 7 7 7 7 7 7 6 5 6 7 8
2 3 3 4 6 3 8 8 7 2 6 8 7 7 6 7 8 9 12 9 8 9 10 9 8 7 7 6 5 4 4 5 5 5 6 7 8 7 7 7 6 6 6 6
4 4 5 5 4 5 7 9 8 8 5 6 5 6 9 9 8 8 8 8 7 9 8 9 9 11 11 11 8 9 8 7 6 7 7 8 8 9 8 7 8 5 6 6
5 5 5 7 6 9 10 9 8 7 4 5 8 7 8 7 8 8 9 11 12 12 11 12 14 12 12 10 11 10 8 8 7 8 8 6 7 10 8 7 7 8 8 8
2 3 6 6 5 9 9 7 4 4 8 9 8 7 9 10 10 12 11 11 12 12 14 13 14 15 15 12 12 11 11 10 11 11 10 10 9 10 10 8 9 9 10 10
3 1 3 3 4 5 3 5 10 9 8 7 7 11 10 12 11 11 11 11 12 14 14 13 14 15 16 15 15 14 13 11 12 12 11 8 7 7 7 8 8 12 15 14
Wind_Direction
247 220 243 261 94 337 351 332 0 205 109 89 158 254 291 234 170 165 159 166 167 178 172 166 169 176 159 150 164 142 154 149 152 155 159 161 170 173 192 193 182 195 175 176
277 234 245 117 60 338 302 272 300 100 70 130 220 231 242 53 54 167 156 171 172 179 162 166 166 176 158 157 155 141 151 152 151 154 160 157 154 195 170 190 191 195 195 189
220 250 140 167 184 249 274 76 51 230 315 305 282 23 45 354 35 14 338 177 183 176 161 160 138 181 157 153 159 151 154 162 155 154 146 131 113 83 147 189 185 191 204 195
249 266 241 138 214 273 307 63 24 333 10 262 205 188 350 339 322 5 303 336 176 132 86 58 23 342 313 162 160 148 154 161 172 171 170 175 171 170 198 184 185 186 195 199
255 254 269 215 172 301 266 22 330 286 274 320 297 75 274 347 341 6 355 270 343 97 160 149 229 224 256 272 157 155 157 160 169 182 190 183 175 192 190 185 190 190 195 197
250 316 273 229 320 230 290 305 292 279 222 357 5 110 274 218 222 249 240 297 167 161 173 151 223 325 197 254 170 154 156 171 176 184 191 190 197 197 197 190 196 188 186 193
271 255 246 167 328 313 292 283 319 336 42 211 348 63 243 234 235 207 213 260 81 124 146 135 200 239 256 267 168 153 162 173 182 187 190 199 198 198 200 194 191 177 188 200
218 281 199 212 177 216 254 199 179 207 174 223 53 91 286 253 239 285 225 241 83 86 59 159 212 230 268 238 162 160 162 160 175 178 200 192 197 202 197 199 194 196 197 206
328 307 132 198 178 176 264 272 244 183 185 84 4 300 345 11 336 278 274 84 81 84 221 50 34 70 118 263 172 165 169 172 158 189 193 203 201 192 202 220 210 185 206 235
262 335 209 162 107 292 258 255 348 345 91 32 16 273 253 36 253 258 105 108 103 74 15 38 48 53 33 60 273 174 204 236 145 191 204 206 211 201 209 212 224 195 220 231
333 124 268 132 180 218 288 270 314 99 115 137 153 255 194 224 238 284 122 116 135 128 132 95 76 70 30 24 66 36 355 284 252 220 203 211 199 212 204 214 218 214 194 212
295 269 355 259 23 60 47 10 37 102 294 156 135 264 144 202 243 193 96 127 157 139 93 108 79 73 44 23 354 356 11 21 351 317 295 226 189 198 203 223 229 240 250 140
360 330 348 331 15 351 33 342 348 346 357 281 115 247 156 205 113 109 102 101 100 118 98 95 82 73 98 99 275 343 12 21 357 355 322 8 315 220 215 239 258 204 169 200
101 300 115 219 302 108 24 354 350 24 353 313 16 189 44 73 91 75 67 69 86 103 113 107 102 132 159 218 246 28 29 24 3 3 3 37 37 53 144 191 262 249 195 218
96 287 309 306 116 125 150 44 335 306 256 156 65 71 62 75 79 69 54 36 64 101 117 142 162 178 193 199 190 188 153 95 23 15 346 355 346 342 19 289 285 168 303 237
301 280 359 315 340 112 146 241 227 243 261 181 106 124 142 120 93 76 73 43 36 64 90 129 158 168 178 193 198 200 183 158 138 3 336 332 341 345 346 335 334 179 264 185
15 59 53 314 352 355 359 272 242 66 40 62 75 104 75 61 63 62 46 85 60 78 54 64 85 101 118 140 196 179 195 185 176 190 257 292 308 319 318 319 335 327 258 227
69 58 56 324 5 339 335 16 61 68 42 31 64 69 77 74 62 68 55 53 34 26 20 15 16 343 312 43 158 171 187 202 204 209 218 234 241 258 282 296 294 296 308 287
108 94 22 111 280 280 40 17 21 78 39 26 41 41 37 21 54 48 27 23 9 354 345 338 339 321 318 316 293 305 305 273 247 244 238 236 230 244 252 271 282 278 277 287
95 115 122 342 9 296 5 15 2 355 28 13 39 28 26 24 22 310 355 13 358 347 332 318 307 308 311 283 272 266 259 246 239 230 226 222 221 220 227 234 244 249 240 245
78 87 161 264 220 73 354 6 306 33 209 23 28 19 16 20 246 280 350 338 331 324 314 310 310 298 292 290 294 281 275 269 261 259 244 234 231 232 230 231 228 239 254 264
121 101 27 19 32 57 357 41 75 157 33 41 23 6 3 348 339 1 16 14 0 346 343 345 342 330 320 319 333 313 291 261 270 257 255 252 242 232 233 228 235 241 248 249
46 133 139 122 161 133 81 88 59 61 63 14 11 335 14 24 358 338 342 340 336 333 327 326 318 316 315 317 311 296 269 263 265 270 257 252 256 246 228 220 236 237 236 243
31 18 84 86 15 77 68 56 54 35 358 343 38 20 12 360 347 8 356 352 342 341 333 340 327 313 310 310 311 302 303 291 266 263 257 258 256 257 244 234 232 237 244 245
163 125 140 98 40 88 56 51 18 358 43 34 24 354 17 31 12 4 351 344 337 334 333 322 319 314 307 301 300 291 295 297 291 281 270 261 252 258 254 232 234 235 240 234
59 349 89 130 125 102 55 10 44 51 31 359 1 48 37 36 10 354 343 338 340 332 321 318 311 308 305 303 299 292 290 283 279 282 277 263 251 245 244 249 254 240 235 239